Time,TemperatureF,DewpointF,PressureIn,WindDirection,WindDirectionDegrees,WindSpeedMPH,WindSpeedGustMPH,Humidity,HourlyPrecipIn,Conditions,Clouds,dailyrainin,SoftwareType,DateUTC
2013-02-08 00:00:00,25.5,21.1,-100.00,NW,311,0.0,0.0,83,0.00,,,0.00,VWS V14.01,2013-02-08 08:00:00,
2013-02-08 00:05:00,25.5,21.4,-100.00,NW,311,0.0,0.0,84,0.00,,,0.00,VWS V14.01,2013-02-08 08:05:00,
2013-02-08 00:10:00,25.7,22.4,-100.00,NW,311,0.0,0.0,87,0.00,,,0.00,VWS V14.01,2013-02-08 08:10:00,
2013-02-08 00:15:00,25.5,21.9,-100.00,NW,311,0.0,0.0,86,0.00,,,0.00,VWS V14.01,2013-02-08 08:15:00,
2013-02-08 00:20:00,25.3,21.8,-100.00,NW,311,0.0,0.0,86,0.00,,,0.00,VWS V14.01,2013-02-08 08:20:00,
2013-02-08 00:25:00,25.3,21.8,-100.00,NW,311,0.0,0.0,86,0.00,,,0.00,VWS V14.01,2013-02-08 08:25:00,
2013-02-08 00:30:00,25.2,21.6,-100.00,NW,311,0.0,0.0,86,0.00,,,0.00,VWS V14.01,2013-02-08 08:30:00,
2013-02-08 00:35:00,25.5,23.0,-100.00,NW,311,0.0,0.0,90,0.00,,,0.00,VWS V14.01,2013-02-08 08:35:00,
2013-02-08 00:40:00,25.3,22.6,-100.00,NW,311,0.0,0.0,89,0.00,,,0.00,VWS V14.01,2013-02-08 08:40:00,
2013-02-08 00:45:00,25.2,22.4,-100.00,NW,311,0.0,0.0,89,0.00,,,0.00,VWS V14.01,2013-02-08 08:45:00,
2013-02-08 00:50:00,25.0,21.9,-100.00,NW,311,0.0,0.0,88,0.00,,,0.00,VWS V14.01,2013-02-08 08:50:00,
2013-02-08 00:55:00,24.8,21.8,-100.00,NW,311,0.0,0.0,88,0.00,,,0.00,VWS V14.01,2013-02-08 08:55:00,
2013-02-08 01:00:00,24.6,21.6,-100.00,NW,311,0.0,0.0,88,0.00,,,0.00,VWS V14.01,2013-02-08 09:00:00,
2013-02-08 01:05:00,24.6,21.6,-100.00,NW,311,0.0,0.0,88,0.00,,,0.00,VWS V14.01,2013-02-08 09:05:00,
2013-02-08 01:10:00,24.4,21.4,-100.00,NW,311,0.0,0.0,88,0.00,,,0.00,VWS V14.01,2013-02-08 09:10:00,
2013-02-08 01:15:00,24.4,21.4,-100.00,NW,311,0.0,0.0,88,0.00,,,0.00,VWS V14.01,2013-02-08 09:15:00,
2013-02-08 01:20:00,24.4,21.4,-100.00,NW,311,0.0,0.0,88,0.00,,,0.00,VWS V14.01,2013-02-08 09:20:00,
2013-02-08 01:25:00,24.4,21.4,-100.00,NW,311,0.0,0.0,88,0.00,,,0.00,VWS V14.01,2013-02-08 09:25:00,
2013-02-08 01:30:00,24.4,21.4,-100.00,NW,311,0.0,0.0,88,0.00,,,0.00,VWS V14.01,2013-02-08 09:30:00,
2013-02-08 01:35:00,24.3,21.2,-100.00,NW,311,0.0,0.0,88,0.00,,,0.00,VWS V14.01,2013-02-08 09:35:00,
2013-02-08 01:40:00,24.4,21.9,-100.00,NW,311,0.0,0.0,90,0.00,,,0.00,VWS V14.01,2013-02-08 09:40:00,
2013-02-08 01:45:00,24.4,21.9,-100.00,NW,311,0.0,0.0,90,0.00,,,0.00,VWS V14.01,2013-02-08 09:45:00,
2013-02-08 01:50:00,24.3,21.5,-100.00,NW,311,0.0,0.0,89,0.00,,,0.00,VWS V14.01,2013-02-08 09:50:00,
2013-02-08 01:55:00,24.1,21.3,-100.00,NW,311,0.0,0.0,89,0.00,,,0.00,VWS V14.01,2013-02-08 09:55:00,
2013-02-08 02:00:00,23.9,21.1,-100.00,NW,311,0.0,0.0,89,0.00,,,0.00,VWS V14.01,2013-02-08 10:00:00,
2013-02-08 02:05:00,23.9,21.1,-100.00,NW,311,0.0,0.0,89,0.00,,,0.00,VWS V14.01,2013-02-08 10:05:00,
2013-02-08 02:10:00,23.7,21.0,-100.00,NW,311,0.0,0.0,89,0.00,,,0.00,VWS V14.01,2013-02-08 10:10:00,
2013-02-08 02:15:00,23.7,21.0,-100.00,NW,311,0.0,0.0,89,0.00,,,0.00,VWS V14.01,2013-02-08 10:15:00,
2013-02-08 02:20:00,23.5,20.8,-100.00,NW,311,0.0,0.0,89,0.00,,,0.00,VWS V14.01,2013-02-08 10:20:00,
2013-02-08 02:25:00,23.5,20.8,-100.00,NW,311,0.0,0.0,89,0.00,,,0.00,VWS V14.01,2013-02-08 10:25:00,
2013-02-08 02:30:00,23.5,20.8,-100.00,NW,311,0.0,0.0,89,0.00,,,0.00,VWS V14.01,2013-02-08 10:30:00,
2013-02-08 02:35:00,23.4,20.6,-100.00,NW,311,0.0,0.0,89,0.00,,,0.00,VWS V14.01,2013-02-08 10:35:00,
2013-02-08 02:40:00,23.5,21.0,-100.00,NW,311,0.0,0.0,90,0.00,,,0.00,VWS V14.01,2013-02-08 10:40:00,
2013-02-08 02:45:00,23.5,21.0,-100.00,NW,311,0.0,0.0,90,0.00,,,0.00,VWS V14.01,2013-02-08 10:45:00,
2013-02-08 02:50:00,23.5,21.0,-100.00,NW,311,0.0,0.0,90,0.00,,,0.00,VWS V14.01,2013-02-08 10:50:00,
2013-02-08 02:55:00,23.5,21.0,-100.00,NW,311,0.0,0.0,90,0.00,,,0.00,VWS V14.01,2013-02-08 10:55:00,
2013-02-08 03:00:00,23.5,21.0,-100.00,NW,311,0.0,0.0,90,0.00,,,0.00,VWS V14.01,2013-02-08 11:00:00,
2013-02-08 03:05:00,23.5,21.0,-100.00,NW,311,0.0,0.0,90,0.00,,,0.00,VWS V14.01,2013-02-08 11:05:00,
2013-02-08 03:10:00,23.4,20.9,-100.00,NW,311,0.0,0.0,90,0.00,,,0.00,VWS V14.01,2013-02-08 11:10:00,
2013-02-08 03:15:00,23.4,20.9,-100.00,NW,311,0.0,0.0,90,0.00,,,0.00,VWS V14.01,2013-02-08 11:15:00,
2013-02-08 03:20:00,23.2,20.7,-100.00,NW,311,0.0,0.0,90,0.00,,,0.00,VWS V14.01,2013-02-08 11:20:00,
2013-02-08 03:25:00,23.0,20.5,-100.00,NW,311,0.0,0.0,90,0.00,,,0.00,VWS V14.01,2013-02-08 11:25:00,
2013-02-08 03:30:00,22.8,20.3,-100.00,NW,311,0.0,0.0,90,0.00,,,0.00,VWS V14.01,2013-02-08 11:30:00,
2013-02-08 03:35:00,22.6,19.9,-100.00,NW,311,0.0,0.0,89,0.00,,,0.00,VWS V14.01,2013-02-08 11:35:00,
2013-02-08 03:40:00,22.5,20.0,-100.00,NW,311,0.0,0.0,90,0.00,,,0.00,VWS V14.01,2013-02-08 11:40:00,
2013-02-08 03:45:00,22.3,19.8,-100.00,NW,311,0.0,0.0,90,0.00,,,0.00,VWS V14.01,2013-02-08 11:45:00,
2013-02-08 03:50:00,22.3,19.8,-100.00,NW,311,0.0,0.0,90,0.00,,,0.00,VWS V14.01,2013-02-08 11:50:00,
2013-02-08 03:55:00,22.1,19.6,-100.00,NW,311,0.0,0.0,90,0.00,,,0.00,VWS V14.01,2013-02-08 11:55:00,
2013-02-08 04:00:00,21.9,19.4,-100.00,NW,311,0.0,0.0,90,0.00,,,0.00,VWS V14.01,2013-02-08 12:00:00,
2013-02-08 04:05:00,21.9,19.4,-100.00,NW,311,0.0,0.0,90,0.00,,,0.00,VWS V14.01,2013-02-08 12:05:00,
2013-02-08 04:10:00,21.7,19.0,-100.00,NW,311,0.0,0.0,89,0.00,,,0.00,VWS V14.01,2013-02-08 12:10:00,
2013-02-08 04:15:00,21.7,19.0,-100.00,NW,311,0.0,0.0,89,0.00,,,0.00,VWS V14.01,2013-02-08 12:15:00,
2013-02-08 04:20:00,21.6,19.1,-100.00,NW,311,0.0,0.0,90,0.00,,,0.00,VWS V14.01,2013-02-08 12:20:00,
2013-02-08 04:25:00,21.6,19.1,-100.00,NW,311,0.0,0.0,90,0.00,,,0.00,VWS V14.01,2013-02-08 12:25:00,
2013-02-08 04:30:00,21.4,18.6,-100.00,NW,311,0.0,0.0,89,0.00,,,0.00,VWS V14.01,2013-02-08 12:30:00,
2013-02-08 04:35:00,21.2,18.7,-100.00,NW,311,0.0,0.0,90,0.00,,,0.00,VWS V14.01,2013-02-08 12:35:00,
2013-02-08 04:40:00,21.2,18.7,-100.00,NW,311,0.0,0.0,90,0.00,,,0.00,VWS V14.01,2013-02-08 12:40:00,
2013-02-08 04:45:00,21.2,18.7,-100.00,NW,311,0.0,0.0,90,0.00,,,0.00,VWS V14.01,2013-02-08 12:45:00,
2013-02-08 04:50:00,21.2,18.7,-100.00,NW,311,0.0,0.0,90,0.00,,,0.00,VWS V14.01,2013-02-08 12:50:00,
2013-02-08 04:55:00,21.0,18.5,-100.00,NW,311,0.0,0.0,90,0.00,,,0.00,VWS V14.01,2013-02-08 12:55:00,
2013-02-08 05:00:00,20.8,18.4,-100.00,NW,311,0.0,0.0,90,0.00,,,0.00,VWS V14.01,2013-02-08 13:00:00,
2013-02-08 05:05:00,20.8,18.4,-100.00,NW,311,0.0,0.0,90,0.00,,,0.00,VWS V14.01,2013-02-08 13:05:00,
2013-02-08 05:10:00,20.8,18.4,-100.00,NW,311,0.0,0.0,90,0.00,,,0.00,VWS V14.01,2013-02-08 13:10:00,
2013-02-08 05:15:00,20.7,18.2,-100.00,NW,311,0.0,0.0,90,0.00,,,0.00,VWS V14.01,2013-02-08 13:15:00,
2013-02-08 05:20:00,20.7,17.9,-100.00,NW,311,0.0,0.0,89,0.00,,,0.00,VWS V14.01,2013-02-08 13:20:00,
2013-02-08 05:25:00,20.5,17.8,-100.00,NW,311,0.0,0.0,89,0.00,,,0.00,VWS V14.01,2013-02-08 13:25:00,
2013-02-08 05:30:00,20.5,18.0,-100.00,NW,311,0.0,0.0,90,0.00,,,0.00,VWS V14.01,2013-02-08 13:30:00,
2013-02-08 05:35:00,20.7,18.2,-100.00,NW,311,0.0,0.0,90,0.00,,,0.00,VWS V14.01,2013-02-08 13:35:00,
2013-02-08 05:40:00,20.7,18.2,-100.00,NW,311,0.0,0.0,90,0.00,,,0.00,VWS V14.01,2013-02-08 13:40:00,
2013-02-08 05:45:00,20.5,17.8,-100.00,NW,311,0.0,0.0,89,0.00,,,0.00,VWS V14.01,2013-02-08 13:45:00,
2013-02-08 05:50:00,20.3,17.6,-100.00,NW,311,0.0,0.0,89,0.00,,,0.00,VWS V14.01,2013-02-08 13:50:00,
2013-02-08 05:55:00,20.1,17.4,-100.00,NW,311,0.0,0.0,89,0.00,,,0.00,VWS V14.01,2013-02-08 13:55:00,
2013-02-08 06:00:00,19.9,17.2,-100.00,NW,311,0.0,0.0,89,0.00,,,0.00,VWS V14.01,2013-02-08 14:00:00,
2013-02-08 06:05:00,19.8,17.0,-100.00,NW,311,0.0,0.0,89,0.00,,,0.00,VWS V14.01,2013-02-08 14:05:00,
2013-02-08 06:10:00,19.9,17.2,-100.00,NW,311,0.0,0.0,89,0.00,,,0.00,VWS V14.01,2013-02-08 14:10:00,
2013-02-08 06:15:00,19.9,17.2,-100.00,NW,311,0.0,0.0,89,0.00,,,0.00,VWS V14.01,2013-02-08 14:15:00,
2013-02-08 06:20:00,19.8,17.0,-100.00,NW,311,0.0,0.0,89,0.00,,,0.00,VWS V14.01,2013-02-08 14:20:00,
2013-02-08 06:25:00,19.8,17.0,-100.00,NW,311,0.0,0.0,89,0.00,,,0.00,VWS V14.01,2013-02-08 14:25:00,
2013-02-08 06:30:00,19.8,17.0,-100.00,NW,311,0.0,0.0,89,0.00,,,0.00,VWS V14.01,2013-02-08 14:30:00,
2013-02-08 06:35:00,19.8,17.0,-100.00,NW,311,0.0,0.0,89,0.00,,,0.00,VWS V14.01,2013-02-08 14:35:00,
2013-02-08 06:40:00,19.6,16.9,-100.00,NW,311,0.0,0.0,89,0.00,,,0.00,VWS V14.01,2013-02-08 14:40:00,
2013-02-08 06:45:00,19.6,16.9,-100.00,NW,311,0.0,0.0,89,0.00,,,0.00,VWS V14.01,2013-02-08 14:45:00,
2013-02-08 06:50:00,19.6,16.9,-100.00,NW,311,0.0,0.0,89,0.00,,,0.00,VWS V14.01,2013-02-08 14:50:00,
2013-02-08 06:55:00,19.6,16.9,-100.00,NW,311,0.0,0.0,89,0.00,,,0.00,VWS V14.01,2013-02-08 14:55:00,
2013-02-08 07:00:00,19.6,16.9,-100.00,NW,311,0.0,0.0,89,0.00,,,0.00,VWS V14.01,2013-02-08 15:00:00,
2013-02-08 07:05:00,19.4,16.7,-100.00,NW,311,0.0,0.0,89,0.00,,,0.00,VWS V14.01,2013-02-08 15:05:00,
2013-02-08 07:10:00,19.4,16.7,-100.00,NW,311,0.0,0.0,89,0.00,,,0.00,VWS V14.01,2013-02-08 15:10:00,
2013-02-08 07:15:00,19.4,16.7,-100.00,NW,311,0.0,0.0,89,0.00,,,0.00,VWS V14.01,2013-02-08 15:15:00,
2013-02-08 07:20:00,19.2,16.5,-100.00,NW,311,0.0,0.0,89,0.00,,,0.00,VWS V14.01,2013-02-08 15:20:00,
2013-02-08 07:25:00,19.0,16.1,-100.00,NW,311,0.0,0.0,88,0.00,,,0.00,VWS V14.01,2013-02-08 15:25:00,
2013-02-08 07:30:00,18.7,15.7,-100.00,NW,311,0.0,0.0,88,0.00,,,0.00,VWS V14.01,2013-02-08 15:30:00,
2013-02-08 07:35:00,18.5,15.6,-100.00,NW,311,0.0,0.0,88,0.00,,,0.00,VWS V14.01,2013-02-08 15:35:00,
2013-02-08 07:40:00,18.7,15.7,-100.00,NW,311,0.0,0.0,88,0.00,,,0.00,VWS V14.01,2013-02-08 15:40:00,
2013-02-08 07:45:00,18.7,15.7,-100.00,NW,311,0.0,0.0,88,0.00,,,0.00,VWS V14.01,2013-02-08 15:45:00,
2013-02-08 07:50:00,18.7,15.7,-100.00,NW,311,0.0,0.0,88,0.00,,,0.00,VWS V14.01,2013-02-08 15:50:00,
2013-02-08 07:55:00,19.0,16.1,-100.00,NW,311,0.0,0.0,88,0.00,,,0.00,VWS V14.01,2013-02-08 15:55:00,
2013-02-08 08:00:00,19.2,16.3,-100.00,NW,311,0.0,0.0,88,0.00,,,0.00,VWS V14.01,2013-02-08 16:00:00,
2013-02-08 08:05:00,19.8,16.8,-100.00,NW,311,0.0,0.0,88,0.00,,,0.00,VWS V14.01,2013-02-08 16:05:00,
2013-02-08 08:10:00,20.3,17.6,-100.00,NW,311,0.0,0.0,89,0.00,,,0.00,VWS V14.01,2013-02-08 16:10:00,
2013-02-08 08:15:00,20.5,17.8,-100.00,NW,311,0.0,0.0,89,0.00,,,0.00,VWS V14.01,2013-02-08 16:15:00,
2013-02-08 08:20:00,20.8,18.1,-100.00,NW,311,0.0,0.0,89,0.00,,,0.00,VWS V14.01,2013-02-08 16:20:00,
2013-02-08 08:25:00,21.2,18.5,-100.00,NW,311,0.0,0.0,89,0.00,,,0.00,VWS V14.01,2013-02-08 16:25:00,
2013-02-08 08:30:00,21.4,18.6,-100.00,NW,311,0.0,0.0,89,0.00,,,0.00,VWS V14.01,2013-02-08 16:30:00,
2013-02-08 08:35:00,21.9,19.2,-100.00,NW,311,0.0,0.0,89,0.00,,,0.00,VWS V14.01,2013-02-08 16:35:00,
2013-02-08 08:40:00,22.6,20.1,-100.00,NW,311,0.0,0.0,90,0.00,,,0.00,VWS V14.01,2013-02-08 16:40:00,
2013-02-08 08:45:00,23.2,20.7,-100.00,NW,311,0.0,0.0,90,0.00,,,0.00,VWS V14.01,2013-02-08 16:45:00,
2013-02-08 08:50:00,23.5,21.0,-100.00,NW,311,0.0,0.0,90,0.00,,,0.00,VWS V14.01,2013-02-08 16:50:00,
2013-02-08 08:55:00,24.3,21.8,-100.00,NW,311,0.0,0.0,90,0.00,,,0.00,VWS V14.01,2013-02-08 16:55:00,
2013-02-08 09:00:00,24.6,22.1,-100.00,NW,311,0.0,0.0,90,0.00,,,0.00,VWS V14.01,2013-02-08 17:00:00,
2013-02-08 09:05:00,25.3,22.8,-100.00,NW,311,0.0,0.0,90,0.00,,,0.00,VWS V14.01,2013-02-08 17:05:00,
2013-02-08 09:10:00,25.5,23.0,-100.00,NW,311,0.0,0.0,90,0.00,,,0.00,VWS V14.01,2013-02-08 17:10:00,
2013-02-08 09:15:00,26.1,23.5,-100.00,NW,311,0.0,0.0,90,0.00,,,0.00,VWS V14.01,2013-02-08 17:15:00,
2013-02-08 09:20:00,26.4,23.9,-100.00,NW,311,0.0,0.0,90,0.00,,,0.00,VWS V14.01,2013-02-08 17:20:00,
2013-02-08 09:25:00,27.0,24.4,-100.00,NNE,23,0.0,0.0,90,0.00,,,0.00,VWS V14.01,2013-02-08 17:25:00,
2013-02-08 09:30:00,27.7,25.1,-100.00,NNE,23,0.0,0.0,90,0.00,,,0.00,VWS V14.01,2013-02-08 17:30:00,
2013-02-08 09:35:00,28.4,25.9,-100.00,NNE,23,0.0,0.0,90,0.00,,,0.00,VWS V14.01,2013-02-08 17:35:00,
2013-02-08 09:40:00,28.8,24.8,-100.00,NNE,25,0.0,0.0,85,0.00,,,0.00,VWS V14.01,2013-02-08 17:40:00,
2013-02-08 09:45:00,29.1,24.3,-100.00,NNE,25,0.0,0.0,82,0.00,,,0.00,VWS V14.01,2013-02-08 17:45:00,
2013-02-08 09:50:00,29.5,23.8,-100.00,NNE,25,0.0,0.0,79,0.00,,,0.00,VWS V14.01,2013-02-08 17:50:00,
2013-02-08 09:55:00,30.2,20.2,-100.00,ENE,75,0.0,2.2,66,0.00,,,0.00,VWS V14.01,2013-02-08 17:55:00,
2013-02-08 10:00:00,30.7,20.0,-100.00,ENE,75,0.0,0.0,64,0.00,,,0.00,VWS V14.01,2013-02-08 18:00:00,
2013-02-08 10:05:00,31.1,19.6,-100.00,West,269,0.0,0.0,62,0.00,,,0.00,VWS V14.01,2013-02-08 18:05:00,
2013-02-08 10:10:00,31.3,19.4,-100.00,North,353,0.0,0.0,61,0.00,,,0.00,VWS V14.01,2013-02-08 18:10:00,
2013-02-08 10:15:00,31.8,20.3,-100.00,North,353,0.0,0.0,62,0.00,,,0.00,VWS V14.01,2013-02-08 18:15:00,
2013-02-08 10:20:00,32.4,18.0,-100.00,North,0,0.0,0.0,55,0.00,,,0.00,VWS V14.01,2013-02-08 18:20:00,
2013-02-08 10:25:00,32.7,17.5,-100.00,NNW,348,0.0,0.0,53,0.00,,,0.00,VWS V14.01,2013-02-08 18:25:00,
2013-02-08 10:30:00,33.1,17.4,-100.00,NW,323,0.0,0.0,52,0.00,,,0.00,VWS V14.01,2013-02-08 18:30:00,
2013-02-08 10:35:00,33.4,17.3,-100.00,West,276,0.0,0.0,51,0.00,,,0.00,VWS V14.01,2013-02-08 18:35:00,
2013-02-08 10:40:00,33.8,17.1,-100.00,ENE,63,0.0,0.0,50,0.00,,,0.00,VWS V14.01,2013-02-08 18:40:00,
2013-02-08 10:45:00,34.0,15.9,-100.00,NNW,343,4.0,4.0,47,0.00,,,0.00,VWS V14.01,2013-02-08 18:45:00,
2013-02-08 10:50:00,34.5,16.4,-100.00,NNE,32,0.0,3.6,47,0.00,,,0.00,VWS V14.01,2013-02-08 18:50:00,
2013-02-08 10:55:00,34.7,16.5,-100.00,East,96,0.0,0.0,47,0.00,,,0.00,VWS V14.01,2013-02-08 18:55:00,
2013-02-08 11:00:00,34.9,17.7,-100.00,East,91,0.0,2.7,49,0.00,,,0.00,VWS V14.01,2013-02-08 19:00:00,
2013-02-08 11:05:00,35.4,18.2,-100.00,ENE,61,2.7,4.0,49,0.00,,,0.00,VWS V14.01,2013-02-08 19:05:00,
2013-02-08 11:10:00,35.6,17.9,-100.00,NNE,31,0.0,0.0,48,0.00,,,0.00,VWS V14.01,2013-02-08 19:10:00,
2013-02-08 11:15:00,35.8,17.0,-100.00,WNW,295,0.0,0.0,46,0.00,,,0.00,VWS V14.01,2013-02-08 19:15:00,
2013-02-08 11:20:00,36.1,17.4,-100.00,NW,306,4.0,4.0,46,0.00,,,0.00,VWS V14.01,2013-02-08 19:20:00,
2013-02-08 11:25:00,36.5,17.2,-100.00,NE,37,0.0,0.0,45,0.00,,,0.00,VWS V14.01,2013-02-08 19:25:00,
2013-02-08 11:30:00,36.9,17.5,-100.00,NE,35,0.0,0.0,45,0.00,,,0.00,VWS V14.01,2013-02-08 19:30:00,
2013-02-08 11:35:00,37.4,17.5,-100.00,North,11,0.0,2.7,44,0.00,,,0.00,VWS V14.01,2013-02-08 19:35:00,
2013-02-08 11:40:00,37.4,17.0,-100.00,NE,35,2.7,2.7,43,0.00,,,0.00,VWS V14.01,2013-02-08 19:40:00,
2013-02-08 11:45:00,37.4,17.0,-100.00,NNW,339,0.0,0.0,43,0.00,,,0.00,VWS V14.01,2013-02-08 19:45:00,
2013-02-08 11:50:00,37.8,17.3,-100.00,NW,315,3.6,3.6,43,0.00,,,0.00,VWS V14.01,2013-02-08 19:50:00,
2013-02-08 11:55:00,38.1,17.1,-100.00,NNW,346,4.0,6.3,42,0.00,,,0.00,VWS V14.01,2013-02-08 19:55:00,
2013-02-08 12:00:00,38.1,17.1,-100.00,NNW,339,3.1,3.6,42,0.00,,,0.00,VWS V14.01,2013-02-08 20:00:00,
2013-02-08 12:05:00,38.1,17.1,-100.00,NW,325,0.0,0.0,42,0.00,,,0.00,VWS V14.01,2013-02-08 20:05:00,
2013-02-08 12:10:00,38.5,17.4,-100.00,NNW,341,2.7,3.1,42,0.00,,,0.00,VWS V14.01,2013-02-08 20:10:00,
2013-02-08 12:15:00,38.7,17.6,-100.00,West,271,0.0,0.0,42,0.00,,,0.00,VWS V14.01,2013-02-08 20:15:00,
2013-02-08 12:20:00,39.0,17.9,-100.00,NW,312,2.7,4.9,42,0.00,,,0.00,VWS V14.01,2013-02-08 20:20:00,
2013-02-08 12:25:00,39.4,18.2,-100.00,NW,313,0.0,0.0,42,0.00,,,0.00,VWS V14.01,2013-02-08 20:25:00,
2013-02-08 12:30:00,39.6,17.2,-100.00,WNW,302,2.2,3.6,40,0.00,,,0.00,VWS V14.01,2013-02-08 20:30:00,
2013-02-08 12:35:00,39.7,17.4,-100.00,SSW,200,2.7,2.7,40,0.00,,,0.00,VWS V14.01,2013-02-08 20:35:00,
2013-02-08 12:40:00,39.9,17.6,-100.00,North,353,3.1,4.0,40,0.00,,,0.00,VWS V14.01,2013-02-08 20:40:00,
2013-02-08 12:45:00,39.9,17.0,-100.00,NNW,328,2.2,4.0,39,0.00,,,0.00,VWS V14.01,2013-02-08 20:45:00,
2013-02-08 12:50:00,40.1,17.1,-100.00,NNW,335,4.0,4.0,39,0.00,,,0.00,VWS V14.01,2013-02-08 20:50:00,
2013-02-08 12:55:00,40.3,17.3,-100.00,NW,314,2.2,2.7,39,0.00,,,0.00,VWS V14.01,2013-02-08 20:55:00,
2013-02-08 13:00:00,40.6,17.6,-100.00,North,353,4.0,6.3,39,0.00,,,0.00,VWS V14.01,2013-02-08 21:00:00,
2013-02-08 13:05:00,41.0,18.0,-100.00,NNW,328,5.8,5.8,39,0.00,,,0.00,VWS V14.01,2013-02-08 21:05:00,
2013-02-08 13:10:00,41.0,17.4,-100.00,North,11,0.0,0.0,38,0.00,,,0.00,VWS V14.01,2013-02-08 21:10:00,
2013-02-08 13:15:00,40.8,17.8,-100.00,NNW,340,3.1,3.1,39,0.00,,,0.00,VWS V14.01,2013-02-08 21:15:00,
2013-02-08 13:20:00,41.0,17.4,-100.00,East,98,2.2,3.6,38,0.00,,,0.00,VWS V14.01,2013-02-08 21:20:00,
2013-02-08 13:25:00,40.8,17.2,-100.00,NNW,343,4.5,4.5,38,0.00,,,0.00,VWS V14.01,2013-02-08 21:25:00,
2013-02-08 13:30:00,40.8,17.8,-100.00,NW,313,3.1,4.0,39,0.00,,,0.00,VWS V14.01,2013-02-08 21:30:00,
2013-02-08 13:35:00,41.0,17.4,-100.00,NE,34,0.0,2.7,38,0.00,,,0.00,VWS V14.01,2013-02-08 21:35:00,
2013-02-08 13:40:00,41.0,17.4,-100.00,North,10,3.1,3.1,38,0.00,,,0.00,VWS V14.01,2013-02-08 21:40:00,
2013-02-08 13:45:00,41.0,17.4,-100.00,ESE,102,0.0,3.6,38,0.00,,,0.00,VWS V14.01,2013-02-08 21:45:00,
2013-02-08 13:50:00,41.2,17.5,-100.00,NW,307,0.0,4.9,38,0.00,,,0.00,VWS V14.01,2013-02-08 21:50:00,
2013-02-08 13:55:00,41.2,17.5,-100.00,WNW,291,2.2,4.9,38,0.00,,,0.00,VWS V14.01,2013-02-08 21:55:00,
2013-02-08 14:00:00,41.0,17.4,-100.00,NE,45,2.2,2.7,38,0.00,,,0.00,VWS V14.01,2013-02-08 22:00:00,
2013-02-08 14:05:00,41.0,16.7,-100.00,NW,306,2.7,4.0,37,0.00,,,0.00,VWS V14.01,2013-02-08 22:05:00,
2013-02-08 14:10:00,41.2,16.9,-100.00,North,2,3.1,5.4,37,0.00,,,0.00,VWS V14.01,2013-02-08 22:10:00,
2013-02-08 14:15:00,41.2,16.3,-100.00,NNW,336,3.1,3.1,36,0.00,,,0.00,VWS V14.01,2013-02-08 22:15:00,
2013-02-08 14:20:00,41.4,16.4,-100.00,ENE,73,0.0,3.1,36,0.00,,,0.00,VWS V14.01,2013-02-08 22:20:00,
2013-02-08 14:25:00,41.2,16.3,-100.00,ENE,66,4.9,4.9,36,0.00,,,0.00,VWS V14.01,2013-02-08 22:25:00,
2013-02-08 14:30:00,41.5,16.6,-100.00,North,0,2.7,2.7,36,0.00,,,0.00,VWS V14.01,2013-02-08 22:30:00,
2013-02-08 14:35:00,41.2,15.6,-100.00,North,3,2.7,4.9,35,0.00,,,0.00,VWS V14.01,2013-02-08 22:35:00,
2013-02-08 14:40:00,41.2,16.3,-100.00,NNE,18,3.1,3.1,36,0.00,,,0.00,VWS V14.01,2013-02-08 22:40:00,
2013-02-08 14:45:00,41.4,16.4,-100.00,ENE,70,0.0,2.7,36,0.00,,,0.00,VWS V14.01,2013-02-08 22:45:00,
2013-02-08 14:50:00,41.4,16.4,-100.00,ENE,58,3.1,6.3,36,0.00,,,0.00,VWS V14.01,2013-02-08 22:50:00,
2013-02-08 14:55:00,41.5,15.9,-100.00,NE,38,0.0,2.2,35,0.00,,,0.00,VWS V14.01,2013-02-08 22:55:00,
2013-02-08 15:00:00,41.5,17.2,-100.00,NE,40,0.0,3.6,37,0.00,,,0.00,VWS V14.01,2013-02-08 23:00:00,
2013-02-08 15:05:00,41.4,17.1,-100.00,WNW,283,3.1,3.1,37,0.00,,,0.00,VWS V14.01,2013-02-08 23:05:00,
2013-02-08 15:10:00,41.2,17.5,-100.00,ENE,77,0.0,0.0,38,0.00,,,0.00,VWS V14.01,2013-02-08 23:10:00,
2013-02-08 15:15:00,41.0,17.4,-100.00,ENE,60,2.2,2.7,38,0.00,,,0.00,VWS V14.01,2013-02-08 23:15:00,
2013-02-08 15:20:00,40.8,17.2,-100.00,NE,37,0.0,0.0,38,0.00,,,0.00,VWS V14.01,2013-02-08 23:20:00,
2013-02-08 15:25:00,40.6,17.6,-100.00,ENE,78,4.0,4.0,39,0.00,,,0.00,VWS V14.01,2013-02-08 23:25:00,
2013-02-08 15:30:00,40.6,17.6,-100.00,East,88,0.0,0.0,39,0.00,,,0.00,VWS V14.01,2013-02-08 23:30:00,
2013-02-08 15:35:00,40.6,17.6,-100.00,SSW,210,0.0,0.0,39,0.00,,,0.00,VWS V14.01,2013-02-08 23:35:00,
2013-02-08 15:40:00,40.5,17.5,-100.00,NNW,338,3.1,3.1,39,0.00,,,0.00,VWS V14.01,2013-02-08 23:40:00,
2013-02-08 15:45:00,40.5,17.5,-100.00,NNE,22,2.2,4.0,39,0.00,,,0.00,VWS V14.01,2013-02-08 23:45:00,
2013-02-08 15:50:00,40.3,17.3,-100.00,NE,45,0.0,0.0,39,0.00,,,0.00,VWS V14.01,2013-02-08 23:50:00,
2013-02-08 15:55:00,40.1,17.1,-100.00,East,79,2.7,4.9,39,0.00,,,0.00,VWS V14.01,2013-02-08 23:55:00,
2013-02-08 16:00:00,39.9,17.0,-100.00,NE,46,0.0,0.0,39,0.00,,,0.00,VWS V14.01,2013-02-09 00:00:00,
2013-02-08 16:05:00,39.9,17.0,-100.00,ENE,63,0.0,0.0,39,0.00,,,0.00,VWS V14.01,2013-02-09 00:05:00,
2013-02-08 16:10:00,39.6,16.7,-100.00,ENE,57,0.0,0.0,39,0.00,,,0.00,VWS V14.01,2013-02-09 00:10:00,
2013-02-08 16:15:00,39.4,16.5,-100.00,NE,47,0.0,3.1,39,0.00,,,0.00,VWS V14.01,2013-02-09 00:15:00,
2013-02-08 16:20:00,39.4,16.5,-100.00,North,353,0.0,0.0,39,0.00,,,0.00,VWS V14.01,2013-02-09 00:20:00,
2013-02-08 16:25:00,39.2,16.3,-100.00,ENE,75,2.7,2.7,39,0.00,,,0.00,VWS V14.01,2013-02-09 00:25:00,
2013-02-08 16:30:00,39.2,16.3,-100.00,ENE,74,2.2,4.0,39,0.00,,,0.00,VWS V14.01,2013-02-09 00:30:00,
2013-02-08 16:35:00,38.8,16.0,-100.00,North,4,0.0,0.0,39,0.00,,,0.00,VWS V14.01,2013-02-09 00:35:00,
2013-02-08 16:40:00,38.5,15.7,-100.00,East,98,0.0,0.0,39,0.00,,,0.00,VWS V14.01,2013-02-09 00:40:00,
2013-02-08 16:45:00,38.3,16.1,-100.00,North,353,0.0,0.0,40,0.00,,,0.00,VWS V14.01,2013-02-09 00:45:00,
2013-02-08 16:50:00,37.9,15.2,-100.00,NE,36,0.0,0.0,39,0.00,,,0.00,VWS V14.01,2013-02-09 00:50:00,
2013-02-08 16:55:00,37.6,15.5,-100.00,NE,36,0.0,0.0,40,0.00,,,0.00,VWS V14.01,2013-02-09 00:55:00,
2013-02-08 17:00:00,37.2,15.1,-100.00,North,0,0.0,0.0,40,0.00,,,0.00,VWS V14.01,2013-02-09 01:00:00,
2013-02-08 17:05:00,37.0,15.0,-100.00,NE,50,0.0,0.0,40,0.00,,,0.00,VWS V14.01,2013-02-09 01:05:00,
2013-02-08 17:10:00,36.9,14.8,-100.00,NE,52,0.0,0.0,40,0.00,,,0.00,VWS V14.01,2013-02-09 01:10:00,
2013-02-08 17:15:00,36.3,14.3,-100.00,East,90,0.0,0.0,40,0.00,,,0.00,VWS V14.01,2013-02-09 01:15:00,
2013-02-08 17:20:00,35.8,14.4,-100.00,East,90,0.0,0.0,41,0.00,,,0.00,VWS V14.01,2013-02-09 01:20:00,
2013-02-08 17:25:00,35.1,14.3,-100.00,East,90,0.0,0.0,42,0.00,,,0.00,VWS V14.01,2013-02-09 01:25:00,
2013-02-08 17:30:00,34.5,14.3,-100.00,East,90,0.0,0.0,43,0.00,,,0.00,VWS V14.01,2013-02-09 01:30:00,
2013-02-08 17:35:00,33.8,14.7,-100.00,East,90,0.0,0.0,45,0.00,,,0.00,VWS V14.01,2013-02-09 01:35:00,
2013-02-08 17:40:00,33.3,14.7,-100.00,East,90,0.0,0.0,46,0.00,,,0.00,VWS V14.01,2013-02-09 01:40:00,
2013-02-08 17:45:00,32.7,15.7,-100.00,East,90,0.0,0.0,49,0.00,,,0.00,VWS V14.01,2013-02-09 01:45:00,
2013-02-08 17:50:00,32.4,15.4,-100.00,East,90,0.0,0.0,49,0.00,,,0.00,VWS V14.01,2013-02-09 01:50:00,
2013-02-08 17:55:00,32.0,15.5,-100.00,East,90,0.0,0.0,50,0.00,,,0.00,VWS V14.01,2013-02-09 01:55:00,
2013-02-08 18:00:00,31.5,15.0,-100.00,East,90,0.0,0.0,50,0.00,,,0.00,VWS V14.01,2013-02-09 02:00:00,
2013-02-08 18:05:00,31.3,15.3,-100.00,East,90,0.0,0.0,51,0.00,,,0.00,VWS V14.01,2013-02-09 02:05:00,
2013-02-08 18:10:00,31.1,15.1,-100.00,East,90,0.0,0.0,51,0.00,,,0.00,VWS V14.01,2013-02-09 02:10:00,
2013-02-08 18:15:00,30.7,15.2,-100.00,East,90,0.0,0.0,52,0.00,,,0.00,VWS V14.01,2013-02-09 02:15:00,
2013-02-08 18:20:00,30.6,15.0,-100.00,East,90,0.0,0.0,52,0.00,,,0.00,VWS V14.01,2013-02-09 02:20:00,
2013-02-08 18:25:00,30.4,14.9,-100.00,East,90,0.0,0.0,52,0.00,,,0.00,VWS V14.01,2013-02-09 02:25:00,
2013-02-08 18:30:00,30.2,14.7,-100.00,East,90,0.0,0.0,52,0.00,,,0.00,VWS V14.01,2013-02-09 02:30:00,
2013-02-08 18:35:00,29.8,14.4,-100.00,East,90,0.0,0.0,52,0.00,,,0.00,VWS V14.01,2013-02-09 02:35:00,
2013-02-08 18:40:00,29.7,14.2,-100.00,East,90,0.0,0.0,52,0.00,,,0.00,VWS V14.01,2013-02-09 02:40:00,
2013-02-08 18:45:00,29.5,14.5,-100.00,East,90,0.0,0.0,53,0.00,,,0.00,VWS V14.01,2013-02-09 02:45:00,
2013-02-08 18:50:00,29.1,14.1,-100.00,East,90,0.0,0.0,53,0.00,,,0.00,VWS V14.01,2013-02-09 02:50:00,
2013-02-08 18:55:00,29.1,15.0,-100.00,East,90,0.0,0.0,55,0.00,,,0.00,VWS V14.01,2013-02-09 02:55:00,
2013-02-08 19:00:00,28.9,14.8,-100.00,East,90,0.0,0.0,55,0.00,,,0.00,VWS V14.01,2013-02-09 03:00:00,
2013-02-08 19:05:00,28.8,14.2,-100.00,East,90,0.0,0.0,54,0.00,,,0.00,VWS V14.01,2013-02-09 03:05:00,
2013-02-08 19:10:00,28.6,14.1,-100.00,East,90,0.0,0.0,54,0.00,,,0.00,VWS V14.01,2013-02-09 03:10:00,
2013-02-08 19:15:00,28.4,14.3,-100.00,East,90,0.0,0.0,55,0.00,,,0.00,VWS V14.01,2013-02-09 03:15:00,
2013-02-08 19:20:00,28.2,14.1,-100.00,East,90,0.0,0.0,55,0.00,,,0.00,VWS V14.01,2013-02-09 03:20:00,
2013-02-08 19:25:00,28.2,14.6,-100.00,East,90,0.0,0.0,56,0.00,,,0.00,VWS V14.01,2013-02-09 03:25:00,
2013-02-08 19:30:00,28.4,16.7,-100.00,NNW,346,0.0,0.0,61,0.00,,,0.00,VWS V14.01,2013-02-09 03:30:00,
2013-02-08 19:35:00,29.5,16.9,-100.00,NNW,342,0.0,0.0,59,0.00,,,0.00,VWS V14.01,2013-02-09 03:35:00,
2013-02-08 19:40:00,29.8,16.9,-100.00,NNW,342,0.0,0.0,58,0.00,,,0.00,VWS V14.01,2013-02-09 03:40:00,
2013-02-08 19:45:00,30.0,17.0,-100.00,NNW,342,0.0,0.0,58,0.00,,,0.00,VWS V14.01,2013-02-09 03:45:00,
2013-02-08 19:50:00,29.5,16.5,-100.00,NNW,342,0.0,0.0,58,0.00,,,0.00,VWS V14.01,2013-02-09 03:50:00,
2013-02-08 19:55:00,29.1,16.6,-100.00,NNW,342,0.0,0.0,59,0.00,,,0.00,VWS V14.01,2013-02-09 03:55:00,
2013-02-08 20:00:00,28.6,16.5,-100.00,NNW,342,0.0,0.0,60,0.00,,,0.00,VWS V14.01,2013-02-09 04:00:00,
2013-02-08 20:05:00,28.2,16.5,-100.00,NNW,342,0.0,0.0,61,0.00,,,0.00,VWS V14.01,2013-02-09 04:05:00,
2013-02-08 20:10:00,27.9,16.5,-100.00,NNW,342,0.0,0.0,62,0.00,,,0.00,VWS V14.01,2013-02-09 04:10:00,
2013-02-08 20:15:00,27.9,17.3,-100.00,NNW,342,0.0,0.0,64,0.00,,,0.00,VWS V14.01,2013-02-09 04:15:00,
2013-02-08 20:20:00,27.7,16.7,-100.00,NNW,342,0.0,0.0,63,0.00,,,0.00,VWS V14.01,2013-02-09 04:20:00,
2013-02-08 20:25:00,27.7,17.1,-100.00,NNW,342,0.0,0.0,64,0.00,,,0.00,VWS V14.01,2013-02-09 04:25:00,
2013-02-08 20:30:00,27.9,17.3,-100.00,NNW,342,0.0,0.0,64,0.00,,,0.00,VWS V14.01,2013-02-09 04:30:00,
2013-02-08 20:35:00,27.9,17.3,-100.00,NNW,342,0.0,0.0,64,0.00,,,0.00,VWS V14.01,2013-02-09 04:35:00,
2013-02-08 20:40:00,28.0,17.5,-100.00,NNW,342,0.0,0.0,64,0.00,,,0.00,VWS V14.01,2013-02-09 04:40:00,
2013-02-08 20:45:00,28.4,17.1,-100.00,North,349,0.0,0.0,62,0.00,,,0.00,VWS V14.01,2013-02-09 04:45:00,
2013-02-08 20:50:00,28.9,16.4,-100.00,North,349,0.0,0.0,59,0.00,,,0.00,VWS V14.01,2013-02-09 04:50:00,
2013-02-08 20:55:00,29.3,15.6,-100.00,NNW,344,0.0,0.0,56,0.00,,,0.00,VWS V14.01,2013-02-09 04:55:00,
2013-02-08 21:00:00,29.5,15.3,-100.00,NNW,345,0.0,0.0,55,0.00,,,0.00,VWS V14.01,2013-02-09 05:00:00,
2013-02-08 21:05:00,29.1,15.4,-100.00,NNW,345,0.0,0.0,56,0.00,,,0.00,VWS V14.01,2013-02-09 05:05:00,
2013-02-08 21:10:00,28.8,15.1,-100.00,NNW,345,0.0,0.0,56,0.00,,,0.00,VWS V14.01,2013-02-09 05:10:00,
2013-02-08 21:15:00,28.6,14.9,-100.00,NNW,345,0.0,0.0,56,0.00,,,0.00,VWS V14.01,2013-02-09 05:15:00,
2013-02-08 21:20:00,28.4,15.1,-100.00,NNW,345,0.0,0.0,57,0.00,,,0.00,VWS V14.01,2013-02-09 05:20:00,
2013-02-08 21:25:00,28.4,15.5,-100.00,NNW,345,0.0,0.0,58,0.00,,,0.00,VWS V14.01,2013-02-09 05:25:00,
2013-02-08 21:30:00,28.2,15.4,-100.00,NNW,345,0.0,0.0,58,0.00,,,0.00,VWS V14.01,2013-02-09 05:30:00,
2013-02-08 21:35:00,28.0,15.6,-100.00,North,353,0.0,0.0,59,0.00,,,0.00,VWS V14.01,2013-02-09 05:35:00,
2013-02-08 21:40:00,28.2,15.8,-100.00,North,353,0.0,0.0,59,0.00,,,0.00,VWS V14.01,2013-02-09 05:40:00,
2013-02-08 21:45:00,28.4,15.9,-100.00,North,353,0.0,0.0,59,0.00,,,0.00,VWS V14.01,2013-02-09 05:45:00,
2013-02-08 21:50:00,28.6,15.7,-100.00,North,353,0.0,0.0,58,0.00,,,0.00,VWS V14.01,2013-02-09 05:50:00,
2013-02-08 21:55:00,28.4,15.5,-100.00,North,353,0.0,0.0,58,0.00,,,0.00,VWS V14.01,2013-02-09 05:55:00,
2013-02-08 22:00:00,28.0,15.6,-100.00,North,353,0.0,0.0,59,0.00,,,0.00,VWS V14.01,2013-02-09 06:00:00,
2013-02-08 22:05:00,27.9,15.4,-100.00,North,353,0.0,0.0,59,0.00,,,0.00,VWS V14.01,2013-02-09 06:05:00,
2013-02-08 22:10:00,27.7,15.6,-100.00,North,353,0.0,0.0,60,0.00,,,0.00,VWS V14.01,2013-02-09 06:10:00,
2013-02-08 22:15:00,27.3,15.7,-100.00,North,353,0.0,0.0,61,0.00,,,0.00,VWS V14.01,2013-02-09 06:15:00,
2013-02-08 22:20:00,27.0,15.3,-100.00,North,353,0.0,0.0,61,0.00,,,0.00,VWS V14.01,2013-02-09 06:20:00,
2013-02-08 22:25:00,26.8,15.5,-100.00,North,353,0.0,0.0,62,0.00,,,0.00,VWS V14.01,2013-02-09 06:25:00,
2013-02-08 22:30:00,27.1,16.6,-100.00,North,353,0.0,0.0,64,0.00,,,0.00,VWS V14.01,2013-02-09 06:30:00,
2013-02-08 22:35:00,27.1,16.2,-100.00,North,353,0.0,0.0,63,0.00,,,0.00,VWS V14.01,2013-02-09 06:35:00,
2013-02-08 22:40:00,26.6,16.1,-100.00,North,353,0.0,0.0,64,0.00,,,0.00,VWS V14.01,2013-02-09 06:40:00,
2013-02-08 22:45:00,26.1,16.3,-100.00,North,353,0.0,0.0,66,0.00,,,0.00,VWS V14.01,2013-02-09 06:45:00,
2013-02-08 22:50:00,25.5,16.1,-100.00,North,353,0.0,0.0,67,0.00,,,0.00,VWS V14.01,2013-02-09 06:50:00,
2013-02-08 22:55:00,25.3,16.9,-100.00,North,353,0.0,0.0,70,0.00,,,0.00,VWS V14.01,2013-02-09 06:55:00,
2013-02-08 23:00:00,25.2,16.8,-100.00,North,353,0.0,0.0,70,0.00,,,0.00,VWS V14.01,2013-02-09 07:00:00,
2013-02-08 23:05:00,24.8,16.4,-100.00,North,353,0.0,0.0,70,0.00,,,0.00,VWS V14.01,2013-02-09 07:05:00,
2013-02-08 23:10:00,24.6,16.6,-100.00,North,353,0.0,0.0,71,0.00,,,0.00,VWS V14.01,2013-02-09 07:10:00,
2013-02-08 23:15:00,24.6,16.6,-100.00,North,353,0.0,0.0,71,0.00,,,0.00,VWS V14.01,2013-02-09 07:15:00,
2013-02-08 23:20:00,24.4,16.7,-100.00,North,353,0.0,0.0,72,0.00,,,0.00,VWS V14.01,2013-02-09 07:20:00,
2013-02-08 23:25:00,24.3,17.2,-100.00,North,353,0.0,0.0,74,0.00,,,0.00,VWS V14.01,2013-02-09 07:25:00,
2013-02-08 23:30:00,24.1,17.0,-100.00,North,353,0.0,0.0,74,0.00,,,0.00,VWS V14.01,2013-02-09 07:30:00,
2013-02-08 23:35:00,23.9,16.5,-100.00,North,353,0.0,0.0,73,0.00,,,0.00,VWS V14.01,2013-02-09 07:35:00,
2013-02-08 23:40:00,23.9,16.8,-100.00,North,353,0.0,0.0,74,0.00,,,0.00,VWS V14.01,2013-02-09 07:40:00,
2013-02-08 23:45:00,23.9,16.8,-100.00,North,353,0.0,0.0,74,0.00,,,0.00,VWS V14.01,2013-02-09 07:45:00,
2013-02-08 23:50:00,23.9,16.8,-100.00,North,353,0.0,0.0,74,0.00,,,0.00,VWS V14.01,2013-02-09 07:50:00,
2013-02-08 23:55:00,23.9,17.1,-100.00,North,353,0.0,0.0,75,0.00,,,0.00,VWS V14.01,2013-02-09 07:55:00,